Regional Weather Roundup
Issued by NWS

Home | Current Version | Previous Version | Text Only | Print | Product List | Glossary On
Versions: 1 2 3 4 5 6 7 8 9 10 11 12 13 14 15 16 17 18 19 20 21 22 23 24 25 26 27 28 29 30 31 32 33 34 35 36 37 38 39 40 41 42 43 44 45 46 47 48 49 50
276
ASUS43 KMKX 260621
RWRWI

WISCONSIN REGIONAL WEATHER ROUNDUP
NATIONAL WEATHER SERVICE MILWAUKEE/SULLIVAN WI
100 AM CDT MON SEP 26 2016

NOTE: "FAIR" INDICATES FEW OR NO CLOUDS BELOW 12,000 FEET WITH NO
SIGNIFICANT WEATHER AND/OR OBSTRUCTIONS TO VISIBILITY.

WIZ001-002-006>008-014>016-023>028-260700-
NORTHWEST WISCONSIN

CITY           SKY/WX    TMP DP  RH WIND       PRES   REMARKS
SUPERIOR ARPT  CLOUDY    53  47  82 W12G17    29.77F
6HR MIN TEMP:  53; 6HR MAX TEMP:  60; 6HR PCP:  0.01;

ASHLAND        CLOUDY    53  48  83 SW13G24   29.77F
6HR MIN TEMP:  52; 6HR MAX TEMP:  61;

HAYWARD        CLOUDY    52  47  83 SW9       29.82F
6HR MIN TEMP:  51; 6HR MAX TEMP:  58; 6HR PCP:  0.08;

SIREN          CLOUDY    51  43  73 W12       29.87F
6HR MIN TEMP:  51; 6HR MAX TEMP:  58;

CUMBERLAND     CLOUDY    50  41  71 W15G22    29.88F
RICE LAKE      MOCLDY    52  42  69 W14G22    29.89F
6HR MIN TEMP:  52; 6HR MAX TEMP:  58; 6HR PCP:  0.02;

CHETEK         NOT AVBL
LADYSMITH      MOCLDY    52  45  77 W14       29.87F
6HR MIN TEMP:  51; 6HR MAX TEMP:  61;

EAU CLAIRE     CLEAR     53  43  68 W13       29.91F
6HR MIN TEMP:  53; 6HR MAX TEMP:  61; 6HR PCP: TRACE;

MENOMONIE      CLEAR     53  48  83 SW13G18   29.92F
6HR MIN TEMP:  53; 6HR MAX TEMP:  60;

NEW RICHMOND   PTCLDY    52  42  69 W15       29.93F
6HR MIN TEMP:  51; 6HR MAX TEMP:  56; 6HR PCP:  0.01;

OSCEOLA        CLOUDY    54  44  67 W13G21    29.95F
6HR MIN TEMP:  53; 6HR MAX TEMP:  58;

$$

WIZ003>005-009-010-017-018-260700-
NORTH CENTRAL WISCONSIN

CITY           SKY/WX    TMP DP  RH WIND       PRES   REMARKS
MANITOWISH WTR NOT AVBL
ARBOR VITAE    CLOUDY    53  50  89 W8G17     29.79F
6HR MIN TEMP:  53; 6HR MAX TEMP:  62; 6HR PCP:  0.01;

WOODRUFF       CLOUDY    53  50  89 W8G17     29.79F
6HR MIN TEMP:  53; 6HR MAX TEMP:  62; 6HR PCP:  0.01;

RHINELANDER    CLOUDY    51  51 100 W8        29.81F
6HR MIN TEMP:  52; 6HR MAX TEMP:  63; 6HR PCP:  0.01;

EAGLE RIVER    CLOUDY    52  51  95 W12       29.78F
6HR MIN TEMP:  52; 6HR MAX TEMP:  62;

LAND O LAKES   LGT RAIN  54  52  92 W7        29.78F
6HR MIN TEMP:  54; 6HR MAX TEMP:  64;

PHILLIPS       CLOUDY    51  49  92 SW10      29.82F
6HR MIN TEMP:  51; 6HR MAX TEMP:  60; 6HR PCP:  0.05;

TOMAHAWK       CLOUDY    52  48  86 W6G18     29.83F
6HR MIN TEMP:  52; 6HR MAX TEMP:  61;

MEDFORD        PTCLDY    50  49  96 W12       29.86F
6HR MIN TEMP:  50; 6HR MAX TEMP:  61; 6HR PCP:  0.01;

MERRILL        CLOUDY    55  50  85 W13       29.85F
6HR MIN TEMP:  55; 6HR MAX TEMP:  63;

$$

WIZ029-030-035-036-043>047-260700-
CENTRAL WISCONSIN

CITY           SKY/WX    TMP DP  RH WIND       PRES   REMARKS
WAUSAU         CLOUDY    54  47  77 W20G29    29.84F
6HR MIN TEMP:  54; 6HR MAX TEMP:  64; 6HR PCP:  0.01;

MOSINEE        CLOUDY    54  46  76 W13G28    29.87F
MARSHFIELD     PTCLDY    54  44  69 W14G24    29.89S
6HR MIN TEMP:  54; 6HR MAX TEMP:  63; 6HR PCP: TRACE;

STEVENS POINT  CLOUDY    55  48  77 W10G21    29.89S
6HR MIN TEMP:  55; 6HR MAX TEMP:  64;

WAUPACA        CLOUDY    59  55  87 W13G18    29.89S
6HR MIN TEMP:  59; 6HR MAX TEMP:  73;

WAUTOMA        CLOUDY    59  50  72 W12G22    29.91F
6HR MIN TEMP:  58; 6HR MAX TEMP:  71;

WISC RAPIDS    CLOUDY    55  50  83 W12       29.92F
6HR MIN TEMP:  55; 6HR MAX TEMP:  63; 6HR PCP:  0.02;

CAMP DOUGLAS   MOCLDY    56  48  74 W9G20     29.94S
6HR MIN TEMP:  56; 6HR MAX TEMP:  64;

$$

WIZ011>013-019>022-031-037>040-048>050-260700-
NORTHEAST WISCONSIN

CITY           SKY/WX    TMP DP  RH WIND       PRES   REMARKS
ANTIGO         CLOUDY    53  50  89 W7G16     29.83F
6HR MIN TEMP:  53; 6HR MAX TEMP:  64;

SHAWANO        CLOUDY    60  54  79 W9G20     29.84S
6HR MIN TEMP:  60; 6HR MAX TEMP:  72; 6HR PCP:  0.21;

OCONTO         NOT AVBL
STURGEON BAY   CLOUDY    61  56  83 W10       29.82F
6HR MIN TEMP:  61; 6HR MAX TEMP:  67;

GREEN BAY      CLOUDY    60  56  86 W10       29.84F
6HR MIN TEMP:  60; 6HR MAX TEMP:  68; 6HR PCP:  0.01;

MANITOWOC      CLOUDY    63  55  75 W8G17     29.85F
6HR MIN TEMP:  63; 6HR MAX TEMP:  69;

APPLETON       CLOUDY    57  52  82 W14G23    29.86S
CLINTONVILLE   NOT AVBL
OSHKOSH        CLOUDY    60  51  72 W13G24    29.89R
6HR MIN TEMP:  60; 6HR MAX TEMP:  73; 6HR PCP:  0.01;

$$

WIZ032>034-041-042-053>061-260700-
SOUTHWEST WISCONSIN

CITY           SKY/WX    TMP DP  RH WIND       PRES   REMARKS
LA CROSSE      CLEAR     59  50  72 W10       29.97F
6HR MIN TEMP:  58; 6HR MAX TEMP:  67;

SPARTA         PTCLDY    55  49  81 W5        29.96F
6HR MIN TEMP:  55; 6HR MAX TEMP:  64;

VIROQUA        CLEAR     54  50  85 W8        29.98F
6HR MIN TEMP:  54; 6HR MAX TEMP:  62;

BOSCOBEL       CLOUDY    60  51  72 SW6       30.00F
6HR MIN TEMP:  60; 6HR MAX TEMP:  66;

PRAIRIE DU CHI PTCLDY    57  49  75 W8        30.01S
6HR MIN TEMP:  57; 6HR MAX TEMP:  65;

PLATTEVILLE    CLOUDY    58  52  81 W7        30.01F
6HR MIN TEMP:  58; 6HR MAX TEMP:  65;

$$

WIZ056-057-062-063-064-067-068-260700-
SOUTH CENTRAL WISCONSIN

CITY           SKY/WX    TMP DP  RH WIND       PRES   REMARKS
REEDSBURG      NOT AVBL
BARABOO/DELLS  CLOUDY    57  49  73 W8        29.95S
6HR MIN TEMP:  57; 6HR MAX TEMP:  67;

LONE ROCK      CLOUDY    60  49  66 W13       29.98S
6HR MIN TEMP:  60; 6HR MAX TEMP:  67;

MINERAL POINT  CLOUDY    59  52  77 W8        30.00S
MADISON        CLOUDY    60  50  69 W13G18    29.95S
6HR MIN TEMP:  60; 6HR MAX TEMP:  71; 6HR PCP: TRACE;

MIDDLETON      CLOUDY    60  52  74 W13       29.97S
6HR MIN TEMP:  60; 6HR MAX TEMP:  70;

WATERTOWN      CLOUDY    60  53  77 W10G21    29.93S
6HR MIN TEMP:  60; 6HR MAX TEMP:  72;

MONROE         CLOUDY    59  50  72 W14G20    29.98S
JANESVILLE     CLOUDY    61  52  72 W12       29.96S
$$

WIZ051-052-058>065-066-070>072-260700-
SOUTHEAST WISCONSIN

CITY           SKY/WX    TMP DP  RH WIND       PRES   REMARKS
MILWAUKEE      CLOUDY    64  54  69 W13       29.91S
6HR MIN TEMP:  64; 6HR MAX TEMP:  73; 6HR PCP:  0.35;

WAUKESHA       CLOUDY    59  52  77 W15       29.93S
MILWAUKEE/TIMM CLOUDY    61  52  72 W13G20    29.91S
RACINE         CLOUDY    63  54  72 W13G21    29.93R
6HR MIN TEMP:  62; 6HR MAX TEMP:  71; 6HR PCP:  0.38;

BURLINGTON     CLOUDY    60  52  74 W12       29.94R
6HR MIN TEMP:  60; 6HR MAX TEMP:  71;

KENOSHA        CLOUDY    63  54  72 W16       29.92S
6HR MIN TEMP:  62; 6HR MAX TEMP:  72; 6HR PCP: TRACE;

FOND DU LAC    CLOUDY    61  53  75 W14G22    29.90R
6HR MIN TEMP:  61; 6HR MAX TEMP:  72; 6HR PCP:  0.01;

SHEBOYGAN      CLOUDY    61  54  77 W13       29.87S
6HR MIN TEMP:  61; 6HR MAX TEMP:  70; 6HR PCP:  0.06;

WEST BEND      CLOUDY    61  54  77 W10G18    29.90S
JUNEAU         CLOUDY    59  51  75 W9G17     29.94R
6HR MIN TEMP:  59; 6HR MAX TEMP:  72;

$$

LSZ147-162-260700-
LAKE SUPERIOR

STATION/POSITION TIME  TEMP    WIND        PRES    WAVE
                       AIR SEA DIR/SP/G            HT/PER
                 (UTC) (F)     (DEG/KT/KT) (MB)    (FT/S)
W MID LAKE BUOY  0550   58 60  240/ 25/ 29 1004.1F   5/ 6
DEVILS ISLAND    0600   53     240/ 29/ 34 1005.7F
SAXON HARBOR     0500   58     220/  7/ 13 1008.1
$$

LMZ867-665-643>646-260700-
LAKE MICHIGAN

STATION/POSITION TIME  TEMP    WIND        PRES    WAVE
                       AIR SEA DIR/SP/G            HT/PER
                 (UTC) (F)     (DEG/KT/KT) (MB)    (FT/S)
CHAMBERS ISLAND  0500   63     220/  7/ 13 1008.8S
N MID LAKE BUOY  0550   67 67  240/ 17/ 21 1007.2F   5/ 7
NORTHPORT PIER   0500   64     270/  4/ 10 1008.1F
KEWAUNEE LAKESHO 0C1F1C2F2C3F3C4F4C5F5C6F6C7F7C8M1C9M2Ca!



USA.gov is the U.S. government's official web portal to all federal, state and local government web resources and services.